Location: Carnières
(50.1682°N, 3.3474°E)
Time: 21:34:07
(UTC+00:00)

SL-16 R/B - Pass Details

Date: 14 August 2024
Orbit: 842 x 845 km, 71.0° (Epoch: 10 September)

Event Time Altitude Azimuth Distance (km) Brightness Sun altitude
Exits shadow 23:59:25 49° 248° (WSW) 1,084 2.5 -25.5°
Maximum altitude 00:00:46 64° 303° (WNW) 937 2.4 -25.5°
Drops below altitude 10° 00:06:25 10° 25° (NNE) 2,477 5.5 -25.5°
Sets 00:08:54 0° 29° (NNE) 3,416 6.4 -25.5°
